Tracking 23764 objects as of 17-Oct-2021
HD Live streaming from Space Station
objects crossing your sky now

STARLINK-3077

Track STARLINK-3077 now!
10-day predictions
STARLINK-3077 is classified as:


NORAD ID: 49133
Int'l Code: 2021-082D
Perigee: 364.3 km
Apogee: 369.1 km
Inclination: 70.0 °
Period: 91.7 minutes
Semi major axis: 6737 km
RCS: Unknown
Launch date: September 14, 2021
Source: United States (US)
Launch site: AIR FORCE WESTERN TEST RANGE (AFWTR)
aabbcc
Your satellite tracking list
Your tracking list is empty




NASA's NSSDC Master Catalog

Two Line Element Set (TLE):
1 49133U 21082D   21290.58334491  .00008133  00000-0  69806-4 0  9992
2 49133  70.0008  32.8516 0003570 289.3651  77.8334 15.69760992  5350
Source of the keplerian elements: AFSPC